Location: Conway Observatory, Indiana
(41.2910°N, 87.4210°W)
Time: 09:05:54
(UTC-05:00)

Hubble Space Telescope - Visible Passes

Search period start: 21 October 2017 00:00
Search period end: 31 October 2017 00:00
Orbit: 537 x 541 km, 28.5° (Epoch: 20 October)

Date Brightness Start Highest point End Pass type
(mag) Time Alt. Az. Time Alt. Az. Time Alt. Az.
23 Oct 3.2 18:56:53 10° S 18:58:01 11° S 18:59:10 10° SSE visible
24 Oct 3.2 18:46:05 10° SSW 18:47:42 12° S 18:49:19 10° SSE visible
24 Oct 3.6 20:26:08 10° SSW 20:26:15 10° SSW 20:26:15 10° SSW visible
25 Oct 3.2 18:35:29 10° SSW 18:37:23 13° S 18:39:16 10° SSE visible
25 Oct 3.5 20:16:01 10° SSW 20:16:38 11° SSW 20:16:38 11° SSW visible
26 Oct 3.2 18:25:01 10° SSW 18:27:04 13° S 18:29:06 10° SSE visible
26 Oct 3.4 20:06:02 10° SSW 20:07:03 11° SSW 20:07:03 11° SSW visible
27 Oct 3.2 18:14:37 10° SSW 18:16:44 14° S 18:18:51 10° SSE visible
27 Oct 3.4 19:56:23 10° SSW 19:57:08 10° SSW 19:57:29 10° S visible
